SCP
0 0 0 0 0 0 0 0 0 0 0 0 0 0 0 0 0 0 0 0 0 0 0 0 0 0 0 0 0 0 0 0 0 0 0 0 0 0 -0 -0 -0 0 0 0 -0
0 0 0 0 0 0 0 0 0 0 0 0 0 0 0 0 0 0 0 0 -0 0 0 0 0 0 0 0 0 0 0 0 0 0 0 0 0 0 0 -0 -0 -0 0 0 0
0 0 0 0 0 0 0 0 0 0 0 0 0 0 0 0 0 0 0 0 0 0 0 0 0 0 0 0 0 0 0 0 0 0 0 0 0 0 0 0 -0 -0 -0 0 0
0 0 0 0 0 0 0 0 0 0 0 0 0 0 0 0 0 0 0 0 0 0 0 0 0 0 0 0 0 0 0 0 0 0 0 0 0 0 0 -0 0 0 0 0 0
0 0 0 0 0 0 0 0 0 0 0 0 0 0 0 0 0 0 0 0 0 0 0 0 0 0 0 0 0 0 0 0 0 0 0 0 0 0 0 0 0 0 0 0 0
0 0 0 0 0 0 0 0 0 0 0 0 0 0 0 0 0 0 0 0 0 0 0 0 0 0 0 0 0 0 0 0 0 0 0 0 0 0 -0 0 0 0 0 0 0
0 0 0 0 0 0 0 0 0 0 0 0 0 0 0 0 0 0 0 0 0 0 0 0 0 0 0 0 0 0 0 0 0 0 0 0 0 -0 -0 0 0 0 0 0 0
0 0 0 0 0 0 0 0 0 0 0 0 0 0 0 0 0 0 0 0 0 0 0 0 0 0 0 0 0 0 0 0 0 0 0 0 0 0 -0 -0 0 0 0 0 0
0 0 0 0 0 0 0 0 0 0 0 0 0 0 0 0 0 0 0 0 0 0 0 0 0 0 0 0 0 0 0 0 0 0 0 0 0 -0 0 0 0 0 0 0 0
0 0 0 0 0 0 0 0 0 0 0 0 0 0 0 0 0 0 0 0 0 0 0 0 0 0 0 0 0 0 0 0 0 0 0 0 0 0 0 0 -0 0 0 0 0
0 0 0 0 0 0 0 0 0 0 0 0 0 0 0 0 0 0 0 0 0 0 0 0 0 0 0 0 0 0 0 0 0 0 0 0 0 0 0 0 0 -0 0 0 0
0 0 0 0 0 0 0 0 0 0 0 0 0 0 0 0 0 0 0 0 0 0 0 0 0 0 0 0 0 0 0 0 0 0 0 0 0 0 0 -0 0 0 0 0 0
0 0 0 0 0 0 0 0 0 0 0 0 0 0 0 0 0 0 0 0 0 0 0 0 0 0 0 0 0 0 0 0 0 0 -0 0 0 0 0 -0 -0 0 0 0 0
0 0 0 0 0 0 0 0 0 0 0 0 0 0 0 0 0 0 0 0 0 0 0 0 0 0 0 0 0 0 -0 0 0 0 0 0 0 0 0 0 0 0 0 0 0
0 0 0 0 0 0 0 0 0 0 0 0 0 0 0 0 0 0 0 0 0 0 0 0 0 0 0 0 -0 -0 0 0 0 0 0 0 0 0 0 0 0 0 0 0 0
0 0 0 0 0 0 0 0 0 0 0 0 0 0 0 0 -0 -0 -0 0 0 0 0 -0 0 0 0 -0 -0 -0 0 -0 0 0 0 0 -0 0 0 0 0 0 0 0 0
0 0 0 0 0 0 0 0 0 0 0 0 0 0 0 0 0 -0 -0 -0 -0 -0 0 0 0 0 0 0 -0 -0 0 -0 -0 -0 -0 0 0 0 0 0 0 0 0 0 0
0 0 0 0 0 0 0 0 0 0 0 0 0 -0 0 0 -0 -0 -0 0 -0 -0 0 0 0 0 0 -0 -0 -0 -0 -0 -0 -0 -0 0 0 0 0 0 0 0 0 0 0
0 0 0 -0 0 0 0 0 0 0 0 0 0 0 -0 0 -0 -0 0 -0 -0 -0 -0 0 0 0 -0 0 -0 -0 -0 -0 0 -0 0 0 0 0 0 0 0 0 0 0 0
0 0 0 -0 0 0 0 0 0 0 0 0 0 0 0 -0 -0 -0 0 -0 0 0 0 0 0 0 0 0 0 0 0 0 0 0 0 0 0 0 0 0 0 0 0 0 0
0 0 -0 -0 0 0 0 0 0 0 0 0 0 -0 0 -0 -0 0 0 0 0 0 -0 0 0 0 0 0 0 0 0 -0 0 0 0 0 0 0 0 0 0 0 0 0 0
0 0 -0 -0 0 0 0 0 0 0 0 0 0 -0 0 -0 -0 0 0 0 0 -0 -0 0 0 0 0 0 0 0 0 0 0 0 0 0 0 0 0 0 0 0 0 0 0
0 0 -0 0 0 0 0 0 0 0 0 0 0 0 0 0 -0 0 0 0 -0 -0 0 0 0 0 0 0 0 0 0 0 0 0 0 0 0 0 0 0 0 0 0 0 0
0 0 0 0 0 0 0 0 0 0 0 0 0 0 -0 0 0 0 0 0 0 0 -0 0 -0 -0 -0 -0 0 0 0 0 0 0 0 0 0 0 0 0 0 0 0 0 0
0 0 0 0 0 0 0 0 0 0 0 0 -0 0 0 0 -0 0 0 0 0 0 -0 -0 0 0 -0 -0 0 -0 -0 0 0 0 0 0 0 0 0 0 0 0 0 0 0
0 0 0 0 0 0 0 0 0 0 0 0 0 0 0 0 0 -0 0 0 0 0 0 0 0 0 -0 0 0 -0 -0 -0 0 0 0 0 0 0 0 0 0 0 0 0 0
0 0 0 0 0 0 0 0 0 0 0 0 0 0 0 0 0 -0 0 0 0 0 0 0 0 0 0 -0 0 -0 0 -0 0 0 0 0 0 0 0 0 0 0 0 0 0
Wind_Speed_500mb
12 12 14 17 22 25 25 25 25 27 30 32 31 30 33 31 38 41 48 27 20 16 20 19 15 19 16 9 8 10 10 28 43 39 22 18 5 25 27 34 30 28 29 37 42
21 20 21 21 25 28 27 28 27 26 25 26 23 29 28 36 43 50 4 6 4 3 7 15 16 10 7 3 5 10 11 28 8 10 10 20 24 27 23 32 38 26 35 44 44
15 17 21 25 27 28 27 27 27 29 27 26 25 28 32 40 44 8 7 10 4 5 12 15 9 8 3 8 12 8 25 14 35 32 23 26 31 37 25 27 27 20 27 40 31
17 17 24 30 33 33 26 25 25 28 29 29 26 25 30 39 10 7 18 7 6 6 5 5 4 2 4 7 10 12 16 12 12 42 25 27 34 31 40 23 38 32 46 30 35
18 18 25 31 32 31 23 27 31 29 30 31 28 24 31 27 33 20 27 27 31 31 36 37 25 12 8 7 9 18 17 23 21 28 34 33 41 36 68 59 60 43 43 34 22
25 30 32 35 35 30 29 31 30 31 31 32 29 26 30 40 23 12 10 19 25 31 27 17 11 14 16 14 13 11 14 27 20 22 26 27 39 38 60 28 33 29 46 57 57
34 34 34 31 26 27 29 30 34 38 37 34 32 29 31 63 41 44 43 43 39 40 43 42 28 23 7 5 23 22 17 20 25 20 18 30 34 60 31 52 67 65 51 47 59
17 20 23 26 28 31 33 37 40 42 40 39 35 26 26 39 50 35 25 27 28 28 28 23 21 34 31 21 12 7 7 11 9 22 23 21 47 38 34 32 53 60 64 57 57
23 31 37 37 37 37 37 39 41 42 46 35 21 21 24 22 22 16 25 30 27 26 22 20 22 26 15 10 16 14 26 20 16 20 12 31 32 19 56 56 48 41 51 56 56
35 36 37 38 38 36 37 38 38 35 26 15 12 10 21 14 28 43 42 37 31 31 30 29 23 10 12 17 30 18 19 17 26 11 24 30 35 25 52 39 33 53 57 56 58
37 42 42 38 37 34 32 28 14 7 10 16 11 26 51 42 42 47 26 17 28 17 12 22 14 28 46 48 38 5 22 27 27 27 18 18 35 32 42 44 37 28 48 54 52
43 39 34 25 17 20 19 12 7 13 25 25 31 34 35 29 23 33 14 14 10 16 11 10 38 46 32 38 41 34 18 32 22 23 17 26 38 36 28 42 55 42 41 52 44
24 12 9 5 11 12 10 9 12 22 8 16 15 16 13 23 17 44 14 10 12 16 22 35 33 13 28 30 39 42 43 35 24 3 28 28 29 25 29 43 46 54 50 49 40
8 3 2 5 5 4 7 11 17 20 9 11 9 6 14 37 15 19 15 13 10 14 19 24 29 41 31 46 42 40 49 37 30 9 11 15 18 20 31 31 28 40 45 44 35
7 3 3 2 3 4 9 14 16 8 8 15 12 16 43 9 26 8 11 14 19 30 8 23 25 21 30 34 41 28 23 34 33 17 4 30 18 20 28 30 28 20 34 36 34
9 8 8 3 3 6 11 15 6 12 10 15 14 16 18 10 8 18 10 14 30 23 24 44 18 10 9 14 41 11 7 19 10 6 14 40 22 13 16 25 28 18 35 33 30
13 10 8 2 2 8 11 7 9 10 9 19 12 18 14 12 14 6 10 10 7 11 14 16 7 7 8 11 18 16 8 7 10 13 16 8 25 28 18 25 25 28 36 30 26
14 11 4 1 4 7 7 10 12 5 11 11 12 26 5 13 8 11 11 10 9 9 12 10 11 3 9 12 10 36 21 8 14 10 9 9 9 2 8 22 47 41 44 38 31
12 11 6 5 5 6 3 10 11 11 7 18 20 12 13 9 2 16 4 6 7 9 8 9 10 4 11 5 10 15 20 33 20 5 8 7 5 9 10 17 30 35 37 39 37
14 9 11 6 6 5 10 3 3 6 10 8 10 2 7 13 15 13 9 7 11 6 12 8 14 4 4 5 4 7 9 8 8 6 7 6 10 9 6 12 16 23 31 33 40
12 4 10 6 6 6 7 10 5 9 10 5 7 9 10 10 4 8 11 15 7 18 27 11 7 13 6 7 12 4 1 2 0 1 5 7 7 15 9 9 16 18 37 32 36
9 4 9 4 7 8 5 11 5 8 7 7 8 8 8 9 9 7 9 12 28 28 20 8 7 7 8 1 4 6 13 6 4 3 5 7 7 16 16 13 20 27 36 37 44
11 5 10 0 5 3 4 6 5 4 3 7 6 4 9 8 10 8 10 16 25 17 12 12 7 9 16 9 11 13 35 9 6 5 14 7 6 10 21 19 21 28 34 32 34
9 4 7 12 13 12 6 6 5 5 4 6 7 10 13 7 7 11 15 14 41 26 35 9 15 17 11 5 9 14 45 35 9 16 27 17 21 16 19 13 20 31 28 29 28
7 2 6 1 5 10 4 9 3 6 3 4 8 8 9 7 9 7 11 20 17 41 26 10 10 11 9 13 10 46 42 43 48 19 20 20 31 19 15 13 18 28 31 33 29
12 13 13 9 13 10 4 1 1 8 4 6 4 12 10 5 5 11 14 10 8 21 20 20 9 5 8 18 23 36 52 41 27 25 22 26 27 16 23 27 25 28 34 37 34
17 21 11 2 5 7 5 5 6 1 7 9 5 7 9 7 24 40 31 30 22 16 13 12 7 11 10 21 12 32 32 29 24 32 9 22 12 10 19 29 29 35 39 37 33
Wind_Direction_500mb
306 310 316 319 318 319 325 328 329 328 328 328 329 332 329 325 313 312 318 299 284 269 269 279 278 270 284 292 271 280 256 245 238 241 246 298 299 274 258 259 261 257 280 293 290
286 298 304 309 314 308 315 320 322 318 314 311 323 320 332 320 316 322 47 61 105 226 262 302 311 296 244 215 228 218 241 255 302 320 13 350 2 321 281 268 268 267 265 266 274
314 310 315 315 317 317 316 315 313 316 322 317 311 325 326 312 320 149 114 43 82 254 252 286 282 324 279 225 200 224 245 291 291 312 347 332 322 327 309 261 269 262 266 261 257
309 311 314 314 318 320 307 315 317 316 310 314 317 314 313 307 305 197 174 205 167 176 161 352 307 236 250 221 233 266 264 269 288 287 310 299 302 289 283 264 281 298 269 261 245
305 310 303 306 308 316 313 312 308 309 309 308 312 309 306 295 260 276 230 235 256 266 277 282 272 233 219 232 274 254 280 291 287 283 292 288 271 267 274 281 282 272 267 260 264
301 299 296 294 298 304 305 304 308 311 307 301 304 301 290 271 282 302 245 253 267 268 266 266 251 254 243 221 203 263 291 281 287 277 280 278 280 271 256 254 263 284 272 264 268
294 293 297 305 311 307 303 303 304 305 304 299 296 288 276 263 280 285 280 279 278 264 264 263 253 236 237 287 255 263 278 277 261 253 252 276 270 246 255 255 271 277 279 275 263
309 322 315 311 308 303 301 303 304 303 299 293 290 276 261 279 290 294 278 266 269 262 256 266 257 240 233 248 310 304 255 244 216 210 224 229 256 281 268 254 254 267 271 268 265
310 307 299 296 299 304 306 305 304 302 296 293 257 240 264 269 285 297 293 274 273 254 242 264 253 220 183 215 263 199 252 245 264 216 208 207 259 253 270 259 267 261 267 261 267
300 291 291 289 296 303 305 307 308 299 298 294 223 215 258 283 296 299 297 286 261 259 265 236 219 210 178 191 228 205 223 243 238 237 224 230 246 256 270 270 266 260 255 250 255
285 284 284 290 290 298 307 326 329 304 297 246 263 254 286 294 295 296 302 270 248 221 230 201 216 216 210 205 232 221 212 231 236 237 251 257 251 247 247 254 257 263 249 240 240
283 278 281 288 295 298 314 347 3 317 303 298 275 273 289 296 290 308 277 227 200 240 236 227 239 235 231 215 217 232 227 235 262 245 205 246 255 255 241 245 245 248 250 244 234
293 290 301 291 288 301 321 341 340 331 299 306 318 299 314 312 284 300 239 227 215 242 240 240 251 238 217 207 212 218 222 227 225 67 223 249 269 261 252 244 241 233 238 235 222
313 300 241 279 305 311 336 340 334 331 59 291 346 332 320 313 277 302 273 242 212 256 250 253 270 247 215 215 200 225 212 221 229 218 239 187 270 239 235 228 214 223 211 209 201
219 205 188 153 354 341 334 329 325 347 19 305 307 323 325 239 309 1 301 223 255 267 242 264 277 233 211 214 196 244 219 214 217 217 326 261 268 247 211 202 192 164 152 172 187
185 167 145 162 335 336 325 320 339 42 270 334 325 338 354 317 288 294 303 256 275 276 262 262 256 241 212 203 190 197 199 193 189 189 244 245 219 232 194 198 170 139 154 166 167
156 143 144 146 357 325 319 334 32 111 340 318 333 340 337 289 314 295 321 306 312 304 317 306 225 198 204 151 177 191 167 156 189 198 237 212 190 247 330 312 147 138 127 143 152
152 132 123 69 351 320 335 50 64 242 264 306 316 317 316 342 289 316 312 328 246 266 287 325 320 228 185 214 176 188 171 222 201 178 199 153 220 309 34 41 106 112 123 128 123
145 127 89 47 355 336 4 49 200 210 310 334 323 17 320 325 296 360 291 287 291 329 311 303 265 235 230 257 195 161 207 237 300 237 107 125 145 116 71 68 87 98 106 108 109
158 129 40 29 1 1 72 138 190 250 327 326 343 36 304 304 342 16 316 254 289 326 314 270 289 267 316 266 264 227 137 167 181 242 117 128 72 39 72 79 100 97 96 98 99
169 158 4 10 356 49 110 215 276 287 307 314 314 304 269 298 277 294 282 294 341 314 319 280 263 308 318 356 0 343 191 242 123 315 133 119 55 359 71 107 105 101 98 108 118
170 60 0 350 25 56 104 191 248 340 280 265 257 251 254 297 284 285 292 287 329 325 320 298 309 310 270 317 329 327 353 294 283 96 45 85 57 357 24 105 107 100 101 92 94
152 124 25 226 104 62 286 273 238 321 339 320 295 330 281 277 309 292 309 283 325 323 324 328 355 325 334 27 35 10 345 330 27 2 24 82 92 38 42 43 70 91 91 91 87
164 59 49 65 82 123 116 300 328 296 259 276 294 294 311 311 230 302 303 305 327 340 341 8 24 45 75 13 334 14 26 31 54 72 88 62 103 61 49 39 53 75 87 89 88
168 156 126 243 18 102 107 169 12 344 257 247 331 285 334 301 309 291 314 308 333 0 354 31 52 30 64 30 37 40 26 36 52 31 65 81 69 52 48 45 53 84 91 87 83
175 143 103 85 121 116 8 260 214 283 184 295 182 313 302 248 266 299 335 356 332 328 344 347 339 358 8 355 25 45 20 19 21 27 57 70 63 45 56 62 63 74 81 79 78
181 153 141 124 105 89 218 211 234 197 241 244 267 302 299 262 285 273 267 272 270 313 316 353 350 11 332 348 350 37 6 4 42 37 7 54 40 45 47 49 34 64 72 75 77
Wind_Speed_850mb
12 12 14 17 22 25 25 25 25 27 30 32 31 30 33 31 38 41 48 27 20 16 20 19 15 19 16 9 8 10 10 28 43 39 22 18 5 25 27 34 30 28 29 37 42
21 20 21 21 25 28 27 28 27 26 25 26 23 29 28 36 43 50 4 6 4 3 7 15 16 10 7 3 5 10 11 28 8 10 10 20 24 27 23 32 38 26 35 44 44
15 17 21 25 27 28 27 27 27 29 27 26 25 28 32 40 44 8 7 10 4 5 12 15 9 8 3 8 12 8 25 14 35 32 23 26 31 37 25 27 27 20 27 40 31
17 17 24 30 33 33 26 25 25 28 29 29 26 25 30 39 10 7 18 7 6 6 5 5 4 2 4 7 10 12 16 12 12 42 25 27 34 31 40 23 38 32 46 30 35
18 18 25 31 32 31 23 27 31 29 30 31 28 24 31 27 33 20 27 27 31 31 36 37 25 12 8 7 9 18 17 23 21 28 34 33 41 36 68 59 60 43 43 34 22
25 30 32 35 35 30 29 31 30 31 31 32 29 26 30 40 23 12 10 19 25 31 27 17 11 14 16 14 13 11 14 27 20 22 26 27 39 38 60 28 33 29 46 57 57
34 34 34 31 26 27 29 30 34 38 37 34 32 29 31 63 41 44 43 43 39 40 43 42 28 23 7 5 23 22 17 20 25 20 18 30 34 60 31 52 67 65 51 47 59
17 20 23 26 28 31 33 37 40 42 40 39 35 26 26 39 50 35 25 27 28 28 28 23 21 34 31 21 12 7 7 11 9 22 23 21 47 38 34 32 53 60 64 57 57
23 31 37 37 37 37 37 39 41 42 46 35 21 21 24 22 22 16 25 30 27 26 22 20 22 26 15 10 16 14 26 20 16 20 12 31 32 19 56 56 48 41 51 56 56
35 36 37 38 38 36 37 38 38 35 26 15 12 10 21 14 28 43 42 37 31 31 30 29 23 10 12 17 30 18 19 17 26 11 24 30 35 25 52 39 33 53 57 56 58
37 42 42 38 37 34 32 28 14 7 10 16 11 26 51 42 42 47 26 17 28 17 12 22 14 28 46 48 38 5 22 27 27 27 18 18 35 32 42 44 37 28 48 54 52
43 39 34 25 17 20 19 12 7 13 25 25 31 34 35 29 23 33 14 14 10 16 11 10 38 46 32 38 41 34 18 32 22 23 17 26 38 36 28 42 55 42 41 52 44
24 12 9 5 11 12 10 9 12 22 8 16 15 16 13 23 17 44 14 10 12 16 22 35 33 13 28 30 39 42 43 35 24 3 28 28 29 25 29 43 46 54 50 49 40
8 3 2 5 5 4 7 11 17 20 9 11 9 6 14 37 15 19 15 13 10 14 19 24 29 41 31 46 42 40 49 37 30 9 11 15 18 20 31 31 28 40 45 44 35
7 3 3 2 3 4 9 14 16 8 8 15 12 16 43 9 26 8 11 14 19 30 8 23 25 21 30 34 41 28 23 34 33 17 4 30 18 20 28 30 28 20 34 36 34
9 8 8 3 3 6 11 15 6 12 10 15 14 16 18 10 8 18 10 14 30 23 24 44 18 10 9 14 41 11 7 19 10 6 14 40 22 13 16 25 28 18 35 33 30
13 10 8 2 2 8 11 7 9 10 9 19 12 18 14 12 14 6 10 10 7 11 14 16 7 7 8 11 18 16 8 7 10 13 16 8 25 28 18 25 25 28 36 30 26
14 11 4 1 4 7 7 10 12 5 11 11 12 26 5 13 8 11 11 10 9 9 12 10 11 3 9 12 10 36 21 8 14 10 9 9 9 2 8 22 47 41 44 38 31
12 11 6 5 5 6 3 10 11 11 7 18 20 12 13 9 2 16 4 6 7 9 8 9 10 4 11 5 10 15 20 33 20 5 8 7 5 9 10 17 30 35 37 39 37
14 9 11 6 6 5 10 3 3 6 10 8 10 2 7 13 15 13 9 7 11 6 12 8 14 4 4 5 4 7 9 8 8 6 7 6 10 9 6 12 16 23 31 33 40
12 4 10 6 6 6 7 10 5 9 10 5 7 9 10 10 4 8 11 15 7 18 27 11 7 13 6 7 12 4 1 2 0 1 5 7 7 15 9 9 16 18 37 32 36
9 4 9 4 7 8 5 11 5 8 7 7 8 8 8 9 9 7 9 12 28 28 20 8 7 7 8 1 4 6 13 6 4 3 5 7 7 16 16 13 20 27 36 37 44
11 5 10 0 5 3 4 6 5 4 3 7 6 4 9 8 10 8 10 16 25 17 12 12 7 9 16 9 11 13 35 9 6 5 14 7 6 10 21 19 21 28 34 32 34
9 4 7 12 13 12 6 6 5 5 4 6 7 10 13 7 7 11 15 14 41 26 35 9 15 17 11 5 9 14 45 35 9 16 27 17 21 16 19 13 20 31 28 29 28
7 2 6 1 5 10 4 9 3 6 3 4 8 8 9 7 9 7 11 20 17 41 26 10 10 11 9 13 10 46 42 43 48 19 20 20 31 19 15 13 18 28 31 33 29
12 13 13 9 13 10 4 1 1 8 4 6 4 12 10 5 5 11 14 10 8 21 20 20 9 5 8 18 23 36 52 41 27 25 22 26 27 16 23 27 25 28 34 37 34
17 21 11 2 5 7 5 5 6 1 7 9 5 7 9 7 24 40 31 30 22 16 13 12 7 11 10 21 12 32 32 29 24 32 9 22 12 10 19 29 29 35 39 37 33
Wind_Direction_850mb
306 310 316 319 318 319 325 328 329 328 328 328 329 332 329 325 313 312 318 299 284 269 269 279 278 270 284 292 271 280 256 245 238 241 246 298 299 274 258 259 261 257 280 293 290
286 298 304 309 314 308 315 320 322 318 314 311 323 320 332 320 316 322 47 61 105 226 262 302 311 296 244 215 228 218 241 255 302 320 13 350 2 321 281 268 268 267 265 266 274
314 310 315 315 317 317 316 315 313 316 322 317 311 325 326 312 320 149 114 43 82 254 252 286 282 324 279 225 200 224 245 291 291 312 347 332 322 327 309 261 269 262 266 261 257
309 311 314 314 318 320 307 315 317 316 310 314 317 314 313 307 305 197 174 205 167 176 161 352 307 236 250 221 233 266 264 269 288 287 310 299 302 289 283 264 281 298 269 261 245
305 310 303 306 308 316 313 312 308 309 309 308 312 309 306 295 260 276 230 235 256 266 277 282 272 233 219 232 274 254 280 291 287 283 292 288 271 267 274 281 282 272 267 260 264
301 299 296 294 298 304 305 304 308 311 307 301 304 301 290 271 282 302 245 253 267 268 266 266 251 254 243 221 203 263 291 281 287 277 280 278 280 271 256 254 263 284 272 264 268
294 293 297 305 311 307 303 303 304 305 304 299 296 288 276 263 280 285 280 279 278 264 264 263 253 236 237 287 255 263 278 277 261 253 252 276 270 246 255 255 271 277 279 275 263
309 322 315 311 308 303 301 303 304 303 299 293 290 276 261 279 290 294 278 266 269 262 256 266 257 240 233 248 310 304 255 244 216 210 224 229 256 281 268 254 254 267 271 268 265
310 307 299 296 299 304 306 305 304 302 296 293 257 240 264 269 285 297 293 274 273 254 242 264 253 220 183 215 263 199 252 245 264 216 208 207 259 253 270 259 267 261 267 261 267
300 291 291 289 296 303 305 307 308 299 298 294 223 215 258 283 296 299 297 286 261 259 265 236 219 210 178 191 228 205 223 243 238 237 224 230 246 256 270 270 266 260 255 250 255
285 284 284 290 290 298 307 326 329 304 297 246 263 254 286 294 295 296 302 270 248 221 230 201 216 216 210 205 232 221 212 231 236 237 251 257 251 247 247 254 257 263 249 240 240
283 278 281 288 295 298 314 347 3 317 303 298 275 273 289 296 290 308 277 227 200 240 236 227 239 235 231 215 217 232 227 235 262 245 205 246 255 255 241 245 245 248 250 244 234
293 290 301 291 288 301 321 341 340 331 299 306 318 299 314 312 284 300 239 227 215 242 240 240 251 238 217 207 212 218 222 227 225 67 223 249 269 261 252 244 241 233 238 235 222
313 300 241 279 305 311 336 340 334 331 59 291 346 332 320 313 277 302 273 242 212 256 250 253 270 247 215 215 200 225 212 221 229 218 239 187 270 239 235 228 214 223 211 209 201
219 205 188 153 354 341 334 329 325 347 19 305 307 323 325 239 309 1 301 223 255 267 242 264 277 233 211 214 196 244 219 214 217 217 326 261 268 247 211 202 192 164 152 172 187
185 167 145 162 335 336 325 320 339 42 270 334 325 338 354 317 288 294 303 256 275 276 262 262 256 241 212 203 190 197 199 193 189 189 244 245 219 232 194 198 170 139 154 166 167
156 143 144 146 357 325 319 334 32 111 340 318 333 340 337 289 314 295 321 306 312 304 317 306 225 198 204 151 177 191 167 156 189 198 237 212 190 247 330 312 147 138 127 143 152
152 132 123 69 351 320 335 50 64 242 264 306 316 317 316 342 289 316 312 328 246 266 287 325 320 228 185 214 176 188 171 222 201 178 199 153 220 309 34 41 106 112 123 128 123
145 127 89 47 355 336 4 49 200 210 310 334 323 17 320 325 296 360 291 287 291 329 311 303 265 235 230 257 195 161 207 237 300 237 107 125 145 116 71 68 87 98 106 108 109
158 129 40 29 1 1 72 138 190 250 327 326 343 36 304 304 342 16 316 254 289 326 314 270 289 267 316 266 264 227 137 167 181 242 117 128 72 39 72 79 100 97 96 98 99
169 158 4 10 356 49 110 215 276 287 307 314 314 304 269 298 277 294 282 294 341 314 319 280 263 308 318 356 0 343 191 242 123 315 133 119 55 359 71 107 105 101 98 108 118
170 60 0 350 25 56 104 191 248 340 280 265 257 251 254 297 284 285 292 287 329 325 320 298 309 310 270 317 329 327 353 294 283 96 45 85 57 357 24 105 107 100 101 92 94
152 124 25 226 104 62 286 273 238 321 339 320 295 330 281 277 309 292 309 283 325 323 324 328 355 325 334 27 35 10 345 330 27 2 24 82 92 38 42 43 70 91 91 91 87
164 59 49 65 82 123 116 300 328 296 259 276 294 294 311 311 230 302 303 305 327 340 341 8 24 45 75 13 334 14 26 31 54 72 88 62 103 61 49 39 53 75 87 89 88
168 156 126 243 18 102 107 169 12 344 257 247 331 285 334 301 309 291 314 308 333 0 354 31 52 30 64 30 37 40 26 36 52 31 65 81 69 52 48 45 53 84 91 87 83
175 143 103 85 121 116 8 260 214 283 184 295 182 313 302 248 266 299 335 356 332 328 344 347 339 358 8 355 25 45 20 19 21 27 57 70 63 45 56 62 63 74 81 79 78
181 153 141 124 105 89 218 211 234 197 241 244 267 302 299 262 285 273 267 272 270 313 316 353 350 11 332 348 350 37 6 4 42 37 7 54 40 45 47 49 34 64 72 75 77